1501466400.46,160,22.75,74594.8,8.07,-16.27,-16.59,0,*7C
1501466401.72,161,22.81,74598.0,8.07,-16.13,-16.51,0,*72
1501466402.96,162,22.75,74592.8,8.09,-16.17,-16.51,0,*7B
1501466404.2,163,22.81,74596.3,8.07,-16.23,-16.59,0,*7B
1501466405.44,164,22.81,74596.0,8.07,-16.13,-16.55,0,*73
1501466406.67,165,22.81,74596.3,8.07,-16.27,-16.55,0,*75
1501466407.93,166,22.81,74594.0,8.07,-16.09,-16.51,0,*7E
1501466409.14,167,22.81,74598.0,8.09,-16.03,-16.51,0,*7B
1501466410.38,168,22.81,74594.8,8.07,-16.23,-16.55,0,*7C
1501466411.62,169,22.81,74596.5,8.07,-16.13,-16.55,0,*7E
1501466412.86,170,22.81,74598.0,8.07,-16.13,-16.59,0,*7A
1501466414.08,171,22.75,74596.0,8.07,-15.99,-16.51,0,*72
1501466415.32,172,22.81,74596.5,8.07,-16.09,-16.55,0,*7F
1501466416.58,173,22.81,74596.5,8.07,-16.23,-16.51,0,*72
1501466417.84,174,22.81,74598.0,8.07,-16.13,-16.51,0,*76
1501466419.07,175,22.81,74598.0,8.07,-16.13,-16.55,0,*73
1501466420.29,176,22.81,74596.5,8.05,-16.27,-16.75,0,*77
1501466421.53,177,22.81,74596.5,8.07,-16.27,-16.59,0,*7A
1501466422.77,178,22.75,74594.3,8.07,-16.23,-16.59,0,*71
1501466423.98,179,22.75,74594.5,8.05,-16.31,-16.75,0,*7F
1501466425.21,180,22.75,74592.8,8.05,-16.27,-16.65,0,*7F
1501466426.43,181,22.81,74598.5,8.05,-16.27,-16.59,0,*71
1501466427.69,182,22.81,74598.0,8.03,-16.27,-16.65,0,*7B
1501466428.89,183,22.81,74598.3,8.05,-16.41,-16.75,0,*7D
1501466430.11,184,22.81,74596.8,8.03,-16.41,-16.75,0,*7C
1501466431.33,185,22.81,74596.5,8.03,-16.41,-16.75,0,*7D
1501466432.53,186,22.81,74594.0,8.05,-16.41,-16.79,0,*74
1501466433.75,187,22.81,74598.0,8.03,-16.41,-16.79,0,*73
1501466434.97,188,22.81,74596.0,8.03,-16.41,-16.79,0,*7C
1501466436.16,189,22.81,74598.5,8.05,-16.45,-16.79,0,*7F
1501466437.34,190,22.81,74598.8,8.05,-16.45,-16.89,0,*78
1501466438.56,191,22.81,74596.8,8.03,-16.55,-16.79,0,*71
1501466439.77,192,22.81,74596.0,8.05,-16.31,-16.79,0,*76
1501466440.98,193,22.81,74598.3,8.05,-16.31,-16.75,0,*7B
1501466442.18,194,22.81,74596.5,8.05,-16.41,-16.75,0,*7B
1501466443.44,195,22.81,74598.5,8.03,-16.31,-16.65,0,*7A
1501466444.65,196,22.81,74598.8,8.05,-16.17,-16.59,0,*74
1501466445.87,197,22.75,74594.8,8.05,-16.17,-16.55,0,*79
1501466447.08,198,22.81,74596.5,8.05,-16.17,-16.55,0,*76
1501466448.33,199,22.81,74596.5,8.03,-16.27,-16.59,0,*7E
1501466449.59,200,22.81,74596.0,8.03,-16.27,-16.65,0,*72
1501466450.83,201,22.81,74596.0,8.03,-16.17,-16.55,0,*73
1501466452.08,202,22.75,74594.5,8.03,-16.13,-16.55,0,*74
1501466453.33,203,22.75,74594.8,8.03,-16.13,-16.55,0,*75
1501466454.57,204,22.81,74596.0,8.03,-16.17,-16.59,0,*7A
1501466455.82,205,22.81,74598.3,8.03,-16.27,-16.59,0,*78
1501466457.08,206,22.75,74596.5,8.03,-16.31,-16.65,0,*73
1501466458.3,207,22.81,74596.0,8.05,-16.17,-16.59,0,*7F
1501466459.54,208,22.81,74596.0,8.03,-16.17,-16.59,0,*76
1501466460.81,209,22.81,74596.5,8.03,-16.17,-16.65,0,*78
1501466462.08,210,22.75,74592.8,8.03,-16.17,-16.65,0,*70
1501466463.34,211,22.81,74596.8,8.03,-16.31,-16.65,0,*75
1501466464.55,212,22.75,74592.3,8.05,-16.17,-16.59,0,*7B
1501466465.8,213,22.75,74594.8,8.03,-16.17,-16.59,0,*7C
1501466467.04,214,22.81,74598.5,8.03,-16.17,-16.55,0,*77
1501466468.26,215,22.81,74598.3,8.03,-16.03,-16.55,0,*73
1501466469.51,216,22.75,74594.0,8.03,-16.17,-16.59,0,*79
1501466470.75,217,22.75,74594.8,8.03,-16.27,-16.59,0,*7B
1501466471.99,218,22.81,74596.3,8.03,-16.27,-16.55,0,*78
1501466473.24,219,22.81,74594.5,8.03,-16.27,-16.59,0,*75
1501466474.5,220,22.75,74594.0,8.03,-16.27,-16.65,0,*70
1501466475.74,221,22.75,74594.8,8.03,-16.31,-16.75,0,*77
1501466476.98,222,22.81,74598.3,8.03,-16.31,-16.75,0,*74
1501466478.23,223,22.81,74596.3,8.03,-16.31,-16.59,0,*7B
1501466479.45,224,22.81,74598.5,8.03,-16.41,-16.75,0,*75
1501466480.69,225,22.81,74598.8,8.03,-16.31,-16.75,0,*73
1501466481.95,226,22.75,74594.0,8.03,-16.31,-16.65,0,*71
1501466483.2,227,22.81,74596.8,8.03,-16.13,-16.55,0,*73
1501466484.46,228,22.75,74594.5,8.03,-16.27,-16.65,0,*78
1501466485.71,229,22.75,74592.8,8.03,-16.17,-16.55,0,*79
1501466486.94,230,22.81,74598.0,8.01,-16.31,-16.65,0,*74
1501466488.16,231,22.81,74598.8,8.03,-16.41,-16.89,0,*72
1501466489.4,232,22.75,74592.8,8.03,-16.27,-16.59,0,*7C
1501466490.64,233,22.75,74594.3,8.03,-16.27,-16.55,0,*71
1501466491.88,234,22.75,74592.5,8.01,-16.23,-16.65,0,*73
1501466493.12,235,22.81,74596.5,8.01,-16.31,-16.65,0,*71
1501466494.33,236,22.81,74596.0,8.03,-16.45,-16.89,0,*71
1501466495.59,237,22.75,74594.5,8.03,-16.31,-16.65,0,*71
1501466496.81,238,22.81,74598.0,8.01,-16.23,-16.59,0,*70
1501466498.03,239,22.75,74594.5,8.01,-16.17,-16.59,0,*76
1501466499.28,240,22.81,74596.5,8.03,-16.13,-16.59,0,*7E
1501466500.5,241,22.75,74592.8,8.03,-16.41,-16.79,0,*7A
1501466501.72,242,22.81,74598.3,8.03,-16.41,-16.75,0,*75
1501466502.95,243,22.81,74596.0,8.03,-16.41,-16.79,0,*78
1501466504.18,244,22.81,74596.5,8.01,-16.31,-16.65,0,*77
1501466505.44,245,22.75,74594.0,7.99,-16.23,-16.65,0,*7B
1501466506.68,246,22.75,74596.5,8.01,-16.31,-16.69,0,*79
1501466507.92,247,22.75,74594.3,8.03,-16.31,-16.75,0,*77
1501466509.16,248,22.75,74594.5,8.01,-16.23,-16.65,0,*78
1501466510.38,249,22.75,74594.5,8.01,-16.23,-16.59,0,*76
1501466511.61,250,22.75,74594.8,8.01,-16.31,-16.65,0,*72
1501466512.85,251,22.81,74596.5,8.01,-16.23,-16.69,0,*7C
1501466514.09,252,22.75,74594.0,8.01,-16.23,-16.69,0,*7F
1501466515.32,253,22.75,74592.8,8.01,-16.23,-16.65,0,*72
1501466516.54,254,22.75,74594.5,8.01,-16.31,-16.59,0,*79
1501466517.78,255,22.75,74596.5,7.99,-16.37,-16.69,0,*73
1501466519.0,256,22.75,74596.8,7.99,-16.41,-16.75,0,*7C
1501466520.26,257,22.75,74592.8,7.99,-16.27,-16.69,0,*70
1501466521.47,258,22.75,74594.8,8.01,-16.31,-16.79,0,*77
1501466522.67,259,22.75,74594.5,8.01,-16.45,-16.79,0,*75
1501466523.86,260,22.75,74594.5,8.01,-16.37,-16.79,0,*7A
1501466525.08,261,22.75,74594.3,7.99,-16.41,-16.83,0,*71
1501466526.27,262,22.75,74594.5,8.01,-16.37,-16.79,0,*78
1501466527.5,263,22.75,74592.0,8.01,-16.31,-16.65,0,*72
1501466528.69,264,22.75,74592.3,8.01,-16.03,-16.45,0,*76
1501466529.95,265,22.75,74592.8,7.99,-16.09,-16.51,0,*76
1501466531.19,266,22.75,74592.0,8.03,-16.13,-16.45,0,*77
1501466532.42,267,22.75,74594.8,8.01,-16.31,-16.65,0,*76
1501466533.66,268,22.81,74598.0,8.01,-16.31,-16.65,0,*79
1501466534.92,269,22.75,74594.8,7.99,-16.27,-16.69,0,*7D
1501466536.16,270,22.81,74598.3,8.01,-16.23,-16.65,0,*73
1501466537.39,271,22.75,74592.8,8.01,-16.31,-16.65,0,*71
1501466538.63,272,22.75,74592.8,8.01,-16.31,-16.69,0,*7E
1501466539.84,273,22.75,74594.5,8.01,-16.37,-16.69,0,*79
1501466541.08,274,22.81,74594.8,8.01,-16.31,-16.69,0,*78
1501466542.31,275,22.75,74592.5,8.01,-16.31,-16.69,0,*79
1501466543.55,276,22.75,74592.5,7.99,-16.37,-16.65,0,*7E
1501466544.77,277,22.81,74596.0,8.01,-16.23,-16.59,0,*7B
1501466546.03,278,22.75,74592.3,7.99,-16.23,-16.65,0,*75
1501466547.24,279,22.75,74592.3,8.01,-16.03,-16.51,0,*7F
1501466548.5,280,22.75,74594.5,7.99,-16.23,-16.65,0,*72
1501466549.69,281,22.75,74592.8,8.01,-16.03,-16.37,0,*78
1501466550.93,282,22.81,74596.8,8.03,-16.13,-16.55,0,*7C
1501466552.15,283,22.75,74592.3,8.03,-16.03,-16.41,0,*79
1501466553.36,284,22.75,74594.8,8.03,-16.03,-16.45,0,*7A
1501466554.6,285,22.75,74594.3,8.03,-16.17,-16.55,0,*7F
1501466555.84,286,22.75,74592.0,8.01,-16.31,-16.65,0,*79
1501466557.06,287,22.75,74594.5,8.01,-16.23,-16.59,0,*74
1501466558.32,288,22.75,74592.5,7.99,-16.13,-16.65,0,*79
1501466559.56,289,22.81,74596.5,8.01,-16.09,-16.51,0,*7A
1501466560.8,290,22.81,74594.0,8.01,-16.17,-16.51,0,*7D
1501466562.05,291,22.75,74592.8,8.03,-16.13,-16.59,0,*72
1501466563.26,292,22.75,74592.5,8.03,-15.99,-16.41,0,*79
1501466564.47,293,22.75,74592.0,8.01,-15.95,-16.31,0,*71
1501466565.68,294,22.75,74594.3,8.01,-15.95,-16.31,0,*76
1501466566.92,295,22.75,74594.5,8.01,-15.81,-16.23,0,*71
1501466568.13,296,22.81,74598.3,8.01,-16.03,-16.31,0,*78
1501466569.32,297,22.75,74594.0,8.01,-15.95,-16.45,0,*76
1501466570.55,298,22.75,74594.3,8.01,-15.89,-16.31,0,*77
1501466571.76,299,22.75,74592.0,8.03,-16.03,-16.45,0,*76
1501466573.01,300,22.75,74594.3,8.03,-16.27,-16.59,0,*7C
1501466574.22,301,22.75,74592.8,8.05,-16.17,-16.55,0,*74
1501466575.47,302,22.75,74594.3,8.03,-16.13,-16.55,0,*75
1501466576.68,303,22.81,74596.3,8.05,-16.13,-16.55,0,*72
1501466577.9,304,22.75,74592.5,8.03,-16.03,-16.41,0,*77
1501466579.11,305,22.75,74594.0,8.05,-16.13,-16.45,0,*75
1501466580.32,306,22.75,74594.3,8.03,-16.03,-16.55,0,*70
1501466581.57,307,22.75,74594.0,8.03,-16.13,-16.59,0,*7C
1501466582.79,308,22.75,74592.8,8.05,-15.89,-16.41,0,*7C
1501466583.99,309,22.75,74594.5,8.05,-15.99,-16.31,0,*7B
1501466585.2,310,22.75,74592.3,8.03,-16.03,-16.45,0,*76
1501466586.43,311,22.81,74594.5,8.05,-16.27,-16.65,0,*75
1501466587.68,312,22.75,74592.3,8.03,-16.13,-16.55,0,*74
1501466588.86,313,22.81,74594.0,8.05,-16.03,-16.55,0,*72
1501466590.07,314,22.75,74592.0,8.07,-15.99,-16.41,0,*72
1501466591.28,315,22.75,74592.5,8.05,-16.17,-16.55,0,*71
1501466592.54,316,22.75,74592.5,8.03,-16.27,-16.65,0,*74
1501466593.78,317,22.81,74594.0,8.05,-16.27,-16.65,0,*73
1501466595.02,318,22.75,74594.8,8.03,-16.27,-16.59,0,*75
1501466596.26,319,22.75,74590.0,8.05,-16.27,-16.65,0,*7D
1501466597.5,320,22.75,74592.0,8.03,-16.27,-16.59,0,*7E
1501466598.72,321,22.75,74594.0,8.05,-16.17,-16.55,0,*76
1501466599.93,322,22.75,74592.8,8.05,-16.17,-16.55,0,*75
1501466601.17,323,22.75,74592.5,8.03,-15.89,-16.41,0,*73
1501466602.37,324,22.75,74592.0,8.05,-15.99,-16.31,0,*74
1501466603.64,325,22.75,74592.0,8.03,-15.89,-16.31,0,*72
1501466604.84,326,22.75,74588.3,8.05,-15.99,-16.31,0,*76
1501466606.04,327,22.75,74594.5,8.05,-15.99,-16.31,0,*77
1501466607.3,328,22.75,74594.0,8.07,-15.85,-16.27,0,*70
1501466608.56,329,22.75,74592.3,8.07,-15.85,-16.27,0,*71
1501466609.8,330,22.75,74592.0,8.09,-15.89,-16.31,0,*7C
1501466611.04,331,22.75,74590.8,8.07,-16.13,-16.59,0,*7D
1501466612.3,332,22.75,74592.0,8.07,-16.27,-16.69,0,*7A
1501466613.56,333,22.75,74588.0,8.07,-16.23,-16.69,0,*7F
1501466614.8,334,22.75,74592.5,8.07,-16.23,-16.59,0,*7B
1501466616.01,335,22.75,74588.5,8.05,-16.31,-16.75,0,*75
1501466617.24,336,22.75,74588.8,8.05,-16.31,-16.65,0,*77
1501466618.47,337,22.75,74590.5,8.07,-16.27,-16.55,0,*70
1501466619.71,338,22.75,74590.5,8.07,-16.23,-16.55,0,*7B
1501466620.96,339,22.75,74594.8,8.07,-16.23,-16.51,0,*7E
1501466622.19,340,22.75,74592.0,8.07,-16.23,-16.55,0,*74
1501466623.45,341,22.81,74592.3,8.07,-16.27,-16.69,0,*7E
1501466624.71,342,22.75,74594.0,8.07,-16.27,-16.69,0,*7D
1501466625.95,343,22.75,74592.0,8.07,-16.27,-16.59,0,*7F
1501466627.18,344,22.75,74588.8,8.07,-16.27,-16.55,0,*74
1501466628.44,345,22.75,74590.0,8.07,-16.27,-16.69,0,*7A
1501466629.66,346,22.75,74594.0,8.05,-16.17,-16.55,0,*77
1501466630.89,347,22.75,74592.5,8.07,-16.23,-16.55,0,*73
1501466632.13,348,22.75,74592.5,8.07,-16.23,-16.55,0,*7C
1501466633.37,349,22.75,74590.3,8.07,-16.09,-16.55,0,*75
1501466634.61,350,22.75,74590.3,8.07,-16.09,-16.55,0,*7D
1501466635.84,351,22.75,74590.3,8.07,-16.09,-16.41,0,*79
1501466637.09,352,22.75,74592.0,8.07,-16.09,-16.41,0,*7A
1501466638.33,353,22.75,74590.3,8.09,-16.09,-16.51,0,*74
1501466639.56,354,22.75,74592.8,8.07,-16.23,-16.59,0,*7D
1501466640.8,355,22.75,74588.8,8.07,-16.13,-16.55,0,*73
1501466641.99,356,22.75,74592.8,8.09,-16.03,-16.45,0,*7E
1501466643.22,357,22.75,74594.0,8.07,-16.09,-16.55,0,*7A
1501466644.48,358,22.75,74594.8,8.07,-16.13,-16.51,0,*7A
1501466645.72,359,22.75,74588.3,8.07,-16.23,-16.55,0,*7C
1501466646.96,360,22.75,74592.8,8.07,-16.23,-16.59,0,*7A
1501466648.17,361,22.75,74592.3,8.09,-16.17,-16.55,0,*7E
1501466649.41,362,22.75,74590.3,8.07,-16.23,-16.59,0,*78
1501466650.67,363,22.75,74592.0,8.07,-16.13,-16.51,0,*72
1501466651.86,364,22.75,74594.5,8.09,-15.95,-16.37,0,*76
1501466653.1,365,22.75,74590.5,8.09,-16.09,-16.51,0,*71
1501466654.34,366,22.75,74590.0,8.07,-16.13,-16.55,0,*73
1501466655.6,367,22.75,74590.3,8.07,-16.13,-16.51,0,*76
1501466656.81,368,22.75,74592.5,8.09,-16.03,-16.51,0,*76
1501466657.99,369,22.75,74592.3,8.09,-15.95,-16.37,0,*7B
1501466659.19,370,22.75,74592.3,8.07,-15.99,-16.41,0,*70
1501466660.38,371,22.75,74588.8,8.09,-16.03,-16.45,0,*7B
1501466661.62,372,22.75,74592.0,8.09,-16.09,-16.51,0,*77
1501466662.86,373,22.75,74594.5,8.11,-16.17,-16.55,0,*74
1501466664.07,374,22.75,74592.3,8.09,-16.09,-16.45,0,*74
1501466665.25,375,22.75,74592.3,8.09,-16.03,-16.45,0,*7F
1501466666.49,376,22.75,74588.3,8.09,-16.31,-16.65,0,*7F
1501466667.72,377,22.75,74588.8,8.07,-16.37,-16.69,0,*7A
1501466668.91,378,22.75,74590.3,8.09,-16.37,-16.79,0,*7A
1501466670.15,379,22.75,74592.0,8.09,-16.23,-16.65,0,*73
1501466671.37,380,22.75,74590.0,8.09,-16.23,-16.55,0,*76
1501466672.58,381,22.75,74590.5,8.09,-16.23,-16.55,0,*77
1501466673.81,382,22.75,74588.3,8.09,-16.31,-16.65,0,*74
1501466675.03,383,22.75,74592.0,8.09,-16.17,-16.55,0,*72
1501466676.25,384,22.75,74592.0,8.09,-16.17,-16.55,0,*75
1501466677.49,385,22.75,74590.0,8.09,-16.17,-16.65,0,*77
1501466678.71,386,22.75,74594.0,8.09,-16.09,-16.55,0,*78
1501466679.95,387,22.75,74594.3,8.11,-16.17,-16.55,0,*7F
1501466681.21,388,22.75,74594.5,8.11,-16.31,-16.65,0,*77
1501466682.44,389,22.75,74588.8,8.07,-16.37,-16.69,0,*7B
1501466683.68,390,22.75,74592.0,8.09,-16.09,-16.51,0,*7B
1501466684.89,391,22.75,74594.8,8.09,-16.17,-16.45,0,*70
1501466686.13,392,22.75,74592.0,8.09,-16.09,-16.51,0,*79
1501466687.35,393,22.75,74592.3,8.09,-16.31,-16.79,0,*79
1501466688.56,394,22.75,74592.0,8.07,-16.41,-16.83,0,*72
1501466689.77,395,22.75,74588.8,8.11,-16.45,-16.83,0,*70
1501466690.99,396,22.75,74592.0,8.07,-16.55,-16.89,0,*7F
1501466692.22,397,22.75,74592.3,8.09,-16.31,-16.69,0,*7C
1501466693.44,398,22.75,74592.3,8.07,-16.41,-16.75,0,*77
1501466694.67,399,22.75,74594.3,8.09,-16.23,-16.51,0,*7A
1501466695.91,400,22.75,74590.3,8.07,-16.13,-16.59,0,*78
1501466697.15,401,22.75,74592.0,8.07,-16.51,-16.75,0,*71
1501466698.37,402,22.75,74592.0,8.07,-16.41,-16.75,0,*73
1501466699.59,403,22.75,74590.5,8.07,-16.41,-16.83,0,*7B
1501466700.8,404,22.75,74590.0,8.09,-16.37,-16.69,0,*77
1501466702.03,405,22.75,74590.0,8.07,-16.51,-16.97,0,*79
1501466703.22,406,22.75,74590.8,8.09,-16.55,-16.93,0,*74
1501466704.43,407,22.75,74592.8,8.09,-16.51,-16.93,0,*71
1501466705.66,408,22.75,74588.5,8.07,-16.51,-16.89,0,*7B
1501466706.87,409,22.75,74588.8,8.07,-16.55,-16.89,0,*7E
1501466708.11,410,22.75,74590.5,8.07,-16.51,-16.83,0,*78
1501466709.32,411,22.75,74592.3,8.07,-16.41,-16.75,0,*71
1501466710.56,412,22.75,74588.0,8.07,-16.37,-16.69,0,*7E
1501466711.77,413,22.75,74590.8,8.07,-16.41,-16.83,0,*7A
1501466713.01,414,22.75,74592.3,8.07,-16.51,-16.83,0,*7C
1501466714.24,415,22.75,74588.8,8.07,-16.51,-16.89,0,*77
1501466715.43,416,22.75,74590.5,8.09,-16.45,-16.79,0,*70
1501466716.64,417,22.75,74592.8,8.07,-16.41,-16.89,0,*74
1501466717.87,418,22.75,74592.0,8.07,-16.51,-16.97,0,*75
1501466719.13,419,22.75,74592.8,8.07,-16.27,-16.69,0,*74
1501466720.39,420,22.75,74594.5,8.07,-16.27,-16.69,0,*7E
1501466721.62,421,22.75,74588.3,8.07,-16.37,-16.69,0,*7E
1501466722.86,422,22.75,74588.8,8.07,-16.37,-16.69,0,*7D
1501466724.12,423,22.75,74590.8,8.07,-16.27,-16.69,0,*7D
1501466725.35,424,22.75,74590.3,8.07,-16.27,-16.59,0,*79
1501466726.59,425,22.75,74590.0,8.07,-16.41,-16.69,0,*7B
1501466727.78,426,22.75,74590.8,8.05,-16.45,-16.79,0,*7F
1501466729.01,427,22.75,74592.5,8.05,-16.31,-16.65,0,*70
1501466730.21,428,22.75,74588.8,8.05,-16.41,-16.75,0,*79
1501466731.42,429,22.75,74590.3,8.05,-16.27,-16.75,0,*78
1501466732.66,430,22.75,74588.5,8.07,-16.37,-16.65,0,*72
1501466733.87,431,22.75,74588.3,8.07,-16.41,-16.83,0,*7A
1501466735.11,432,22.75,74592.0,8.07,-16.27,-16.75,0,*70
1501466736.34,433,22.75,74590.5,8.07,-16.51,-16.97,0,*7C
1501466737.57,434,22.75,74592.3,8.07,-16.51,-16.89,0,*74
1501466738.8,435,22.75,74590.3,8.07,-16.51,-16.97,0,*7A
1501466739.99,436,22.75,74594.3,8.05,-16.55,-16.93,0,*7B
1501466741.21,437,22.75,74588.3,8.05,-16.55,-17.03,0,*72
1501466742.39,438,22.75,74590.5,8.05,-16.55,-16.93,0,*75
1501466743.6,439,22.75,74588.3,8.03,-16.45,-16.89,0,*78
1501466744.79,440,22.75,74592.8,8.05,-16.45,-16.79,0,*7F
1501466745.98,441,22.75,74592.5,8.05,-16.45,-16.79,0,*7E
1501466747.21,442,22.75,74590.0,8.05,-16.31,-16.65,0,*73
1501466748.42,443,22.75,74592.0,8.05,-16.31,-16.75,0,*73
1501466749.64,444,22.75,74594.8,8.03,-16.55,-16.89,0,*73
1501466750.83,445,22.75,74588.3,8.05,-16.41,-16.79,0,*7E
1501466752.07,446,22.75,74588.8,8.03,-16.45,-17.03,0,*73
1501466753.29,447,22.75,74594.3,8.03,-16.55,-16.93,0,*7B
1501466754.48,448,22.75,74590.5,8.05,-16.41,-16.89,0,*7C
1501466755.69,449,22.75,74592.0,8.03,-16.55,-16.89,0,*7E
1501466756.91,450,22.75,74592.0,8.03,-16.55,-16.89,0,*76
1501466758.12,451,22.75,74592.3,8.05,-16.55,-17.03,0,*72
1501466759.31,452,22.75,74592.8,8.05,-16.45,-16.79,0,*7C
1501466760.52,453,22.75,74590.8,8.03,-16.45,-16.89,0,*74
1501466761.74,454,22.75,74594.0,8.03,-16.45,-16.79,0,*7C
1501466762.98,455,22.75,74594.3,8.03,-16.31,-16.75,0,*72
1501466764.19,456,22.75,74590.5,8.05,-16.31,-16.75,0,*77
1501466765.41,457,22.75,74588.3,8.05,-16.41,-16.65,0,*70
1501466766.63,458,22.75,74588.8,8.03,-16.41,-16.79,0,*74
1501466767.82,459,22.75,74588.0,8.05,-16.41,-16.79,0,*73
1501466769.04,460,22.75,74592.3,8.05,-16.55,-17.03,0,*70
1501466770.22,461,22.75,74588.5,8.05,-16.55,-16.89,0,*72
1501466771.44,462,22.75,74592.3,8.03,-16.45,-16.93,0,*7D
1501466772.66,463,22.75,74592.8,8.03,-16.55,-16.79,0,*79
1501466773.87,464,22.75,74592.5,8.03,-16.45,-16.89,0,*70
1501466775.08,465,22.75,74590.3,8.03,-16.59,-16.93,0,*77
1501466776.27,466,22.75,74592.3,8.05,-16.45,-16.89,0,*74
1501466777.48,467,22.75,74592.3,8.03,-16.45,-16.79,0,*7C
1501466778.71,468,22.75,74588.8,8.03,-16.41,-16.79,0,*77
1501466779.95,469,22.75,74588.3,8.03,-16.17,-16.75,0,*79
1501466781.18,470,22.75,74588.5,8.03,-16.41,-16.79,0,*7E
1501466782.41,471,22.75,74588.8,8.03,-16.31,-16.79,0,*78
1501466783.68,472,22.75,74588.0,8.03,-16.27,-16.65,0,*71
1501466784.94,473,22.75,74594.8,8.03,-16.27,-16.65,0,*70
1501466786.16,474,22.75,74592.0,8.03,-16.41,-16.79,0,*7A
1501466787.38,475,22.75,74590.5,8.03,-16.41,-16.79,0,*7B
1501466788.6,476,22.75,74590.0,8.03,-16.41,-16.79,0,*78
1501466789.83,477,22.75,74588.8,8.03,-16.41,-16.79,0,*79
1501466791.07,478,22.75,74590.8,8.03,-16.27,-16.55,0,*78
1501466792.31,479,22.75,74590.0,8.03,-16.27,-16.59,0,*75
1501466793.55,480,22.75,74592.8,8.03,-16.27,-16.55,0,*7F
1501466794.8,481,22.75,74588.8,8.03,-16.27,-16.59,0,*72
1501466796.04,482,22.75,74588.8,8.03,-16.27,-16.75,0,*7F
1501466797.27,483,22.75,74592.8,8.03,-16.41,-16.75,0,*7E
1501466798.49,484,22.75,74592.3,8.03,-16.41,-16.79,0,*75
1501466799.71,485,22.75,74590.5,8.03,-16.41,-16.79,0,*74
1501466800.9,486,22.75,74590.3,8.01,-16.59,-16.93,0,*78
1501466802.14,487,22.75,74590.3,8.03,-16.31,-16.79,0,*71
1501466803.38,488,22.75,74594.0,8.03,-16.17,-16.55,0,*74
1501466804.63,489,22.75,74590.8,8.03,-16.13,-16.59,0,*7D
1501466805.87,490,22.75,74594.0,8.03,-16.17,-16.55,0,*7D
1501466807.12,491,22.75,74592.8,8.03,-16.13,-16.55,0,*78
1501466808.35,492,22.75,74592.8,8.05,-16.27,-16.65,0,*79
1501466809.6,493,22.75,74592.8,8.03,-16.17,-16.59,0,*72
1501466810.82,494,22.75,74588.8,8.05,-16.17,-16.59,0,*73
1501466812.08,495,22.75,74592.8,8.03,-16.31,-16.65,0,*7F
1501466813.29,496,22.75,74588.8,8.05,-16.31,-16.79,0,*77
1501466814.53,497,22.75,74590.8,8.03,-16.27,-16.75,0,*7B
1501466815.8,498,22.75,74592.3,8.03,-16.17,-16.65,0,*76
1501466817.06,499,22.75,74592.0,8.03,-16.27,-16.65,0,*74
1501466818.28,500,22.75,74594.5,8.05,-16.17,-16.75,0,*71
1501466819.53,501,22.75,74594.0,8.03,-16.17,-16.75,0,*76
1501466820.76,502,22.75,74592.5,8.03,-16.31,-16.79,0,*7D
1501466822.03,503,22.75,74594.3,8.03,-16.31,-16.65,0,*71
1501466823.26,504,22.75,74594.0,8.01,-16.31,-16.69,0,*78
1501466824.5,505,22.75,74592.3,8.03,-16.31,-16.75,0,*76
1501466825.77,506,22.75,74588.0,8.03,-16.17,-16.65,0,*70
1501466827.0,507,22.75,74594.0,8.05,-16.31,-16.65,0,*73
1501466828.26,508,22.75,74594.0,8.03,-16.31,-16.65,0,*7A
1501466829.52,509,22.75,74594.3,8.03,-16.27,-16.65,0,*7C
1501466830.77,510,22.75,74588.8,8.03,-16.27,-16.59,0,*7B
1501466832.01,511,22.75,74592.5,8.03,-16.27,-16.59,0,*7A
1501466833.26,512,22.75,74588.0,8.03,-16.17,-16.59,0,*7A
1501466834.5,513,22.75,74588.8,8.03,-16.27,-16.59,0,*78
1501466835.72,514,22.75,74590.3,8.01,-16.31,-16.79,0,*78
1501466836.96,515,22.75,74592.3,8.03,-16.31,-16.75,0,*77
1501466838.2,516,22.75,74590.5,8.03,-16.31,-16.75,0,*74
1501466839.46,517,22.75,74592.8,8.03,-16.27,-16.65,0,*73
1501466840.71,518,22.75,74590.5,8.03,-16.13,-16.59,0,*74
1501466841.96,519,22.75,74592.8,8.03,-16.17,-16.55,0,*7D
1501466843.2,520,22.75,74592.8,8.03,-16.27,-16.59,0,*78
1501466844.42,521,22.75,74594.5,8.03,-16.41,-16.79,0,*7B
1501466845.63,522,22.75,74594.0,8.03,-16.45,-16.89,0,*73
1501466846.86,523,22.75,74590.5,8.03,-16.41,-16.79,0,*79
1501466848.07,524,22.75,74594.5,8.03,-16.45,-16.89,0,*75
1501466849.28,525,22.75,74592.8,8.03,-16.45,-16.89,0,*74
1501466850.5,526,22.75,74592.3,8.03,-16.59,-16.89,0,*7A
1501466851.74,527,22.75,74592.0,8.03,-16.55,-17.03,0,*74
1501466852.99,528,22.75,74594.8,8.03,-16.59,-17.03,0,*77
1501466854.2,529,22.75,74592.5,8.03,-16.55,-16.93,0,*72
1501466855.41,530,22.75,74592.0,8.03,-16.45,-16.93,0,*7B
1501466856.63,531,22.75,74592.8,8.03,-16.45,-16.93,0,*7A
1501466857.82,532,22.75,74590.8,8.01,-16.59,-16.97,0,*72
1501466859.03,533,22.75,74594.5,8.01,-16.51,-16.97,0,*7B
1501466860.25,534,22.75,74590.5,8.01,-16.65,-16.97,0,*7B
1501466861.44,535,22.75,74594.0,8.01,-16.45,-16.83,0,*7D
1501466862.63,536,22.75,74592.0,8.01,-16.37,-16.83,0,*7B
1501466863.84,537,22.75,74592.5,8.01,-16.31,-16.79,0,*79
1501466865.06,538,22.75,74590.3,7.99,-16.41,-16.83,0,*7A
1501466866.3,539,22.75,74592.8,7.99,-16.55,-17.03,0,*77
1501466867.52,540,22.75,74594.0,8.01,-16.51,-16.97,0,*7F
1501466868.76,541,22.75,74592.3,7.99,-16.65,-16.97,0,*77
1501466870.0,542,22.75,74590.8,8.01,-16.51,-17.07,0,*75
1501466871.22,543,22.75,74588.5,7.99,-16.41,-16.83,0,*76
1501466872.44,544,22.75,74592.8,8.01,-16.45,-16.69,0,*7F
1501466873.62,545,22.75,74594.0,8.01,-16.45,-16.93,0,*7B
1501466874.84,546,22.75,74592.0,7.99,-16.55,-16.97,0,*73
1501466876.08,547,22.75,74588.8,7.99,-16.55,-17.03,0,*7E
1501466877.35,548,22.75,74592.8,7.99,-16.69,-17.11,0,*7D
1501466878.56,549,22.75,74592.3,8.01,-16.51,-16.79,0,*76
1501466879.78,550,22.75,74592.8,7.99,-16.41,-16.75,0,*7D
1501466881.05,551,22.75,74592.5,7.99,-16.27,-16.69,0,*71
1501466882.26,552,22.75,74594.5,7.99,-16.41,-16.83,0,*76
1501466883.5,553,22.75,74594.8,7.99,-16.27,-16.83,0,*77
1501466884.72,554,22.75,74594.8,7.99,-16.37,-16.75,0,*78
1501466885.96,555,22.75,74590.5,8.01,-16.23,-16.69,0,*7F
1501466887.22,556,22.75,74588.3,7.99,-16.27,-16.69,0,*76
1501466888.48,557,22.75,74590.3,7.99,-16.23,-16.65,0,*7F
1501466889.74,558,22.75,74590.5,7.99,-16.27,-16.69,0,*78
1501466890.94,559,22.75,74590.0,8.01,-16.45,-16.79,0,*72
1501466892.13,560,22.75,74590.5,8.01,-16.45,-16.83,0,*7D
1501466893.34,561,22.75,74594.5,8.01,-16.31,-16.79,0,*7A
1501466894.61,562,22.75,74592.0,8.03,-16.17,-16.65,0,*72
1501466895.87,563,22.75,74588.8,7.99,-16.13,-16.65,0,*7B
1501466897.11,564,22.75,74590.0,8.01,-16.17,-16.65,0,*76
1501466898.35,565,22.75,74590.5,8.01,-16.23,-16.65,0,*70
1501466899.59,566,22.75,74594.8,8.01,-16.23,-16.69,0,*7F
1501466900.85,567,22.75,74590.5,7.99,-16.23,-16.69,0,*70
1501466902.07,568,22.75,74588.3,8.01,-16.09,-16.59,0,*7A
1501466903.3,569,22.75,74588.0,8.01,-16.17,-16.59,0,*74
1501466904.53,570,22.75,74588.3,8.01,-16.23,-16.65,0,*74
1501466905.77,571,22.75,74590.3,8.01,-16.31,-16.69,0,*7A
1501466906.96,572,22.75,74592.8,8.01,-16.37,-16.79,0,*7E
1501466908.18,573,22.75,74590.5,7.99,-16.37,-16.83,0,*74
1501466909.39,574,22.75,74590.5,8.01,-16.31,-16.79,0,*7E
1501466910.64,575,22.75,74592.0,8.03,-16.17,-16.59,0,*7B
1501466911.88,576,22.75,74592.0,8.03,-16.17,-16.59,0,*78
1501466913.12,577,22.75,74592.3,8.01,-16.31,-16.69,0,*7C
1501466914.31,578,22.75,74590.3,8.01,-16.37,-16.83,0,*71
1501466915.55,579,22.75,74588.3,7.99,-16.51,-16.97,0,*7B
1501466916.77,580,22.75,74590.8,8.01,-16.59,-17.07,0,*73